Starlink 3297

operational
NORAD ID: 50159 Int'l Des: 2021-125 Owner: SPXS Country: US Constellation: starlink
LEOCIRCULAR

About Starlink 3297

Description loading...

Live Position

Loading 3D Globe...

Upcoming Passes

Altitude History

Altitude vs Time

uPlot chart will show altitude changes over time

Two-Line Element Set

1 50159U 21125D 26036.03904788 .00000577 00000-0 54320-4 0 9994
2 50159 53.2177 45.7056 0001192 93.9690 266.1438 15.08835916231522
Epoch: Feb 5, 2026 • Age: 16 hours

Current Status

Altitude 558.1 km
Velocity 7.58 km/s
Sub-Earth Point -50.65°S, 45.67°W
Launch Date Dec 18, 2021
Age 4.1 years
Type internet

Technical Details

Classification Payload
Mass 290.00 kg
Dry Mass 270.00 kg
Total Mass 290.00 kg
Length 0.20 m
Diameter 2.80 m
Span 9.00 m
Shape Box + pan
Manufacturer SPXS
Bus Type Starlink
Phase Status In Orbit
Owner/State SPXS/US

Large Constellations

Loading constellations...